W0DXV Weather Reports


time (UTC)temp
F
wind
direction
speed
knots
gust
knots
rain 1hr
in
rain 24hr
in
rain mn
in
humidity
%
barometer
mb
20260506232618 70 253 0.0 0.0 0.00 0.06 0.06 87 1007.8
20260506232114 70 245 0.0 0.0 0.00 0.06 0.06 87 1008.0
20260506231611 70 243 0.0 0.0 0.00 0.06 0.06 87 1007.7
20260506231110 71 243 0.9 0.9 0.00 0.06 0.06 85 1007.9
20260506230606 71 273 0.0 0.0 0.00 0.06 0.06 83 1007.7
20260506230103 71 254 0.0 0.9 0.00 0.06 0.06 83 1007.8
20260506225559 71 207 0.0 0.0 0.00 0.06 0.06 82 1007.9
20260506225056 72 207 0.0 0.0 0.00 0.06 0.06 82 1008.2
20260506224553 72 261 0.0 0.9 0.00 0.06 0.06 82 1008.3
20260506224050 72 231 0.0 0.9 0.00 0.06 0.06 82 1008.6
20260506223545 72 238 0.0 0.0 0.00 0.06 0.06 81 1008.4
20260506223042 72 234 0.0 0.0 0.00 0.06 0.06 80 1008.3
20260506222539 72 248 0.9 0.9 0.00 0.06 0.06 80 1008.2
20260506222035 72 256 0.0 0.0 0.00 0.06 0.06 80 1008.4
20260506221533 72 222 0.0 0.0 0.00 0.06 0.06 80 1008.4
20260506221031 72 231 0.0 0.0 0.00 0.06 0.06 79 1008.3
20260506220526 72 184 0.9 0.9 0.00 0.06 0.06 79 1008.3
20260506220022 72 248 0.9 0.9 0.00 0.06 0.06 79 1008.7
20260506215519 72 215 0.9 0.9 0.00 0.06 0.06 79 1008.3
20260506215015 73 220 0.9 0.9 0.00 0.06 0.06 78 1008.3
20260506214512 73 237 0.9 1.7 0.00 0.06 0.06 78 1008.4
20260506214009 73 230 0.9 0.9 0.00 0.06 0.06 78 1008.3
20260506213508 73 204 0.9 0.9 0.00 0.06 0.06 79 1008.4
20260506213004 73 228 1.7 1.7 0.00 0.06 0.06 78 1008.3
20260506212500 73 240 0.9 1.7 0.00 0.06 0.06 79 1008.0
20260506211955 73 227 0.9 0.9 0.00 0.06 0.06 78 1007.9
20260506211451 73 275 0.0 0.0 0.00 0.06 0.06 79 1007.6
20260506210949 72 243 0.9 0.9 0.00 0.06 0.06 78 1007.9
20260506210445 72 242 0.9 0.9 0.00 0.06 0.06 78 1007.9
20260506205942 73 248 2.6 2.6 0.00 0.06 0.06 77 1007.9
20260506205438 73 233 0.9 1.7 0.00 0.06 0.06 78 1007.8
20260506204934 72 220 2.6 2.6 0.00 0.06 0.06 79 1008.1
20260506204433 72 226 1.7 1.7 0.00 0.06 0.06 79 1008.2
20260506203930 73 253 0.9 1.7 0.00 0.06 0.06 78 1008.4
20260506203427 73 277 1.7 1.7 0.00 0.06 0.06 76 1008.3
20260506202924 73 264 1.7 1.7 0.00 0.06 0.06 76 1008.5
20260506202421 73 266 0.9 0.9 0.00 0.06 0.06 78 1008.7
20260506201917 73 210 2.6 4.3 0.00 0.06 0.06 78 1008.6
20260506201415 73 302 0.9 0.9 0.00 0.06 0.06 76 1008.3
20260506200911 73 257 0.9 0.9 0.00 0.06 0.06 77 1008.6
20260506200407 73 250 2.6 2.6 0.00 0.06 0.06 78 1008.5
20260506195904 71 253 0.9 0.9 0.00 0.06 0.06 79 1008.4
20260506195401 71 231 2.6 4.3 0.00 0.06 0.06 80 1008.5
20260506194858 71 254 1.7 1.7 0.00 0.06 0.06 80 1008.5
20260506194355 71 244 0.9 0.9 0.00 0.06 0.06 84 1008.3
20260506193852 71 270 0.9 1.7 0.00 0.06 0.06 82 1008.2
20260506193349 71 218 2.6 4.3 0.00 0.06 0.06 82 1008.4
20260506192845 70 246 1.7 1.7 0.00 0.06 0.06 84 1009.0
20260506192342 69 255 0.9 1.7 0.00 0.06 0.06 85 1008.6
20260506191839 69 230 1.7 1.7 0.00 0.06 0.06 86 1008.8
20260506191335 68 233 1.7 2.6 0.00 0.06 0.06 87 1008.6
20260506190832 68 224 1.7 2.6 0.00 0.06 0.06 86 1008.4
20260506190328 68 237 0.9 4.3 0.00 0.06 0.06 89 1008.6
20260506185826 67 256 0.9 0.9 0.00 0.06 0.06 89 1008.9
20260506185323 67 242 1.7 2.6 0.00 0.06 0.06 91 1008.6
20260506184820 67 265 0.9 0.9 0.00 0.06 0.06 90 1008.8
20260506184317 66 244 0.0 0.9 0.00 0.06 0.06 91 1009.0
20260506183814 66 223 0.9 1.7 0.00 0.06 0.06 90 1008.9
20260506183309 66 232 1.7 1.7 0.00 0.06 0.06 91 1009.0
20260506182807 66 241 0.9 0.9 0.00 0.06 0.06 92 1009.3
20260506182306 66 231 0.9 0.9 0.00 0.06 0.06 93 1009.3
20260506181801 66 269 0.9 0.9 0.00 0.06 0.06 94 1008.9
20260506181259 66 248 0.9 0.9 0.00 0.06 0.06 94 1008.8
20260506180756 66 215 0.9 1.7 0.00 0.06 0.06 93 1008.6
20260506180252 66 175 0.9 0.9 0.00 0.06 0.06 94 1008.8
20260506175748 65 244 0.0 0.9 0.00 0.06 0.06 95 1009.1
20260506175245 64 147 0.9 0.9 0.00 0.06 0.06 96 1009.7
20260506174743 64 243 0.9 0.9 0.00 0.06 0.06 95 1010.2
20260506174239 64 227 0.9 1.7 0.00 0.06 0.06 95 1010.7
20260506173737 64 224 0.9 0.9 0.00 0.06 0.06 95 1010.7
20260506173234 64 247 0.0 0.0 0.07 0.06 0.06 94 1010.7
20260506172731 64 244 0.0 0.0 0.07 0.06 0.06 94 1010.4
20260506172227 64 232 0.9 0.9 0.00 0.05 0.05 93 1010.7
20260506171725 64 229 0.0 0.9 0.05 0.05 0.05 91 1010.7
20260506171222 65 256 0.0 0.9 0.28 0.05 0.05 89 1010.9
20260506170719 67 238 0.9 0.9 0.24 0.04 0.04 85 1010.7
20260506170216 68 229 1.7 1.7 0.00 0.00 0.00 81 1011.2
20260506165715 69 243 0.0 0.9 0.00 0.00 0.00 77 1010.6
20260506165211 69 232 0.9 1.7 0.00 0.00 0.00 75 1010.3
20260506164708 70 237 0.9 0.9 0.00 0.00 0.00 74 1010.5
20260506164205 70 230 0.9 0.9 0.00 0.00 0.00 72 1010.4
20260506163702 70 246 0.0 0.9 0.00 0.00 0.00 71 1010.4
20260506163157 70 230 0.0 0.9 0.00 0.00 0.00 73 1010.6
20260506162653 70 249 0.9 0.9 0.00 0.00 0.00 71 1010.4
20260506162151 70 251 0.9 0.9 0.00 0.00 0.00 69 1010.3
20260506161648 71 224 0.9 0.9 0.00 0.00 0.00 71 1010.4
20260506161144 71 252 0.9 0.9 0.00 0.00 0.00 69 1010.6
20260506160642 70 268 0.9 0.9 0.00 0.00 0.00 71 1010.5
20260506160139 70 272 0.9 0.9 0.00 0.00 0.00 72 1010.3
20260506155638 69 247 0.0 0.0 0.00 0.00 0.00 73 1010.3
20260506155134 68 248 0.0 0.0 0.00 0.00 0.00 77 1009.9
20260506153236 68 270 0.0 0.0 0.00 0.00 0.00 77 1009.9
20260506152733 67 254 0.9 0.9 0.00 0.00 0.00 77 1009.4
20260506152230 67 236 0.9 0.9 0.00 0.00 0.00 78 1009.4
20260506151730 67 237 0.9 0.9 0.00 0.00 0.00 78 1009.3
20260506151226 67 250 0.0 0.0 0.00 0.00 0.00 78 1009.6
20260506150722 67 260 0.0 0.0 0.00 0.00 0.00 77 1009.4
20260506150219 67 249 0.0 0.0 0.00 0.00 0.00 77 1009.6
20260506145717 66 250 0.9 0.9 0.00 0.00 0.00 77 1009.7
20260506145213 66 254 0.9 0.9 0.00 0.00 0.00 78 1009.8
20260506144710 66 237 0.0 0.0 0.00 0.00 0.00 78 1009.7
20260506144207 65 239 0.9 0.9 0.00 0.00 0.00 77 1009.8
20260506143705 65 240 0.9 0.9 0.00 0.00 0.00 79 1010.0
20260506143202 65 242 0.0 0.0 0.00 0.00 0.00 79 1009.9
20260506142701 65 237 0.9 0.9 0.00 0.00 0.00 79 1010.2
20260506142158 65 237 0.0 0.9 0.00 0.00 0.00 78 1010.0
20260506141656 65 239 0.9 1.7 0.00 0.00 0.00 78 1010.0
20260506141154 65 239 0.9 0.9 0.00 0.00 0.00 77 1009.9
20260506140651 65 242 0.0 0.0 0.00 0.00 0.00 77 1010.0
20260506140148 65 241 0.0 0.9 0.00 0.00 0.00 76 1009.8
20260506135645 66 238 0.9 0.9 0.00 0.00 0.00 76 1009.9
20260506135141 65 259 0.0 0.0 0.00 0.00 0.00 76 1009.9
20260506134638 65 261 0.0 0.0 0.00 0.00 0.00 76 1009.7
20260506134134 65 289 1.7 1.7 0.00 0.00 0.00 76 1009.7
20260506133631 64 229 0.9 1.7 0.00 0.00 0.00 77 1009.5
20260506133128 64 248 0.9 0.9 0.00 0.00 0.00 76 1009.8
20260506132625 64 231 1.7 1.7 0.00 0.00 0.00 77 1009.8
20260506132122 64 254 0.0 0.9 0.00 0.00 0.00 78 1009.8
20260506131620 64 261 0.9 0.9 0.00 0.00 0.00 77 1010.0
20260506131116 64 281 0.9 0.9 0.00 0.00 0.00 77 1009.5
20260506130613 64 243 0.9 1.7 0.00 0.00 0.00 76 1009.6
20260506130110 64 248 1.7 1.7 0.00 0.00 0.00 76 1009.6
20260506125609 64 228 1.7 1.7 0.00 0.00 0.00 77 1009.2
20260506125106 64 233 0.9 0.9 0.00 0.00 0.00 78 1009.5
20260506124604 64 242 0.9 0.9 0.00 0.00 0.00 77 1009.6
20260506124101 64 244 0.9 1.7 0.00 0.00 0.00 77 1009.8
20260506123559 64 216 1.7 1.7 0.00 0.00 0.00 77 1009.8
20260506123057 63 246 0.0 0.0 0.00 0.00 0.00 77 1010.1
20260506122553 63 237 0.0 0.0 0.00 0.00 0.00 78 1010.2
20260506122051 63 234 0.0 0.9 0.00 0.00 0.00 77 1010.2
20260506121548 63 250 0.9 0.9 0.00 0.00 0.00 77 1010.3
20260506121045 63 241 1.7 1.7 0.00 0.00 0.00 78 1010.4
20260506120543 63 235 0.9 1.7 0.00 0.00 0.00 78 1010.3
20260506120040 63 247 0.9 0.9 0.00 0.00 0.00 78 1010.5
20260506115538 63 251 0.9 0.9 0.00 0.00 0.00 77 1010.2
20260506115036 62 238 1.7 1.7 0.00 0.00 0.00 78 1010.1
20260506114533 62 237 0.9 0.9 0.00 0.00 0.00 78 1010.1
20260506114032 62 238 0.9 0.9 0.00 0.00 0.00 78 1010.0
20260506113529 62 224 0.9 0.9 0.00 0.00 0.00 79 1010.2
20260506113026 62 233 1.7 1.7 0.00 0.00 0.00 78 1010.0
20260506112523 62 232 0.9 0.9 0.00 0.00 0.00 78 1010.2
20260506112020 62 231 1.7 1.7 0.00 0.00 0.00 79 1010.0
20260506111518 61 233 0.9 0.9 0.00 0.00 0.00 79 1009.9
20260506111015 61 243 0.9 0.9 0.00 0.00 0.00 81 1009.8
20260506110512 61 238 0.9 0.9 0.00 0.00 0.00 81 1009.8
20260506110009 61 238 0.0 0.0 0.00 0.00 0.00 82 1009.5
20260506105505 61 253 0.0 0.0 0.00 0.00 0.00 82 1009.6
20260506105003 60 239 0.0 0.0 0.00 0.00 0.00 82 1009.2
20260506104501 60 243 0.0 0.0 0.00 0.00 0.00 82 1009.1
20260506103959 60 227 0.0 0.0 0.00 0.00 0.00 81 1009.3
20260506103455 60 234 0.0 0.0 0.00 0.00 0.00 82 1008.9
20260506102952 60 236 0.0 0.0 0.00 0.00 0.00 81 1009.0
20260506102450 60 258 0.0 0.0 0.00 0.00 0.00 81 1008.8
20260506101947 60 252 0.0 0.0 0.00 0.00 0.00 82 1008.9
20260506101444 60 254 0.0 0.9 0.00 0.00 0.00 81 1008.9
20260506100941 60 239 0.0 0.0 0.00 0.00 0.00 80 1009.2
20260506100440 60 240 0.0 0.0 0.00 0.00 0.00 82 1009.1
20260506095937 61 249 0.0 0.0 0.00 0.00 0.00 81 1008.8
20260506095436 61 236 0.0 0.0 0.00 0.00 0.00 79 1009.2
20260506094931 61 235 0.0 0.0 0.00 0.00 0.00 81 1008.9
20260506094430 61 233 0.9 0.9 0.00 0.00 0.00 80 1009.2
20260506093927 62 260 0.9 0.9 0.00 0.00 0.00 79 1009.2
20260506093425 62 257 0.9 0.9 0.00 0.00 0.00 78 1009.3
20260506092923 62 233 0.0 0.0 0.00 0.00 0.00 78 1009.1
20260506092420 62 246 0.9 0.9 0.00 0.00 0.00 79 1009.2
20260506091916 62 228 0.0 0.9 0.00 0.00 0.00 78 1009.3
20260506091415 62 232 0.0 0.0 0.00 0.00 0.00 77 1009.3
20260506090911 62 232 0.0 0.0 0.00 0.00 0.00 76 1009.5
20260506090410 62 239 1.7 1.7 0.00 0.00 0.00 77 1009.3
20260506085906 62 219 0.0 0.9 0.00 0.00 0.00 77 1009.3
20260506085403 62 220 0.0 0.0 0.00 0.00 0.00 77 1009.7
20260506084859 62 211 0.9 0.9 0.00 0.00 0.00 77 1009.8
20260506084355 62 220 1.7 1.7 0.00 0.00 0.00 77 1009.7
20260506083852 62 236 0.9 0.9 0.00 0.00 0.00 78 1009.7
20260506083350 62 230 0.0 0.0 0.00 0.00 0.00 78 1009.6
20260506082847 62 240 0.0 0.0 0.00 0.00 0.00 79 1009.9
20260506082344 62 233 0.0 0.0 0.00 0.00 0.00 77 1009.8
20260506081839 63 234 0.0 0.0 0.00 0.00 0.00 78 1009.6
20260506081338 63 257 0.9 0.9 0.00 0.00 0.00 78 1010.0
20260506080835 63 251 0.0 0.0 0.00 0.00 0.00 78 1009.7
20260506080331 63 248 0.9 0.9 0.00 0.00 0.00 76 1009.7
20260506073316 63 248 0.0 0.0 0.00 0.00 0.00 77 1009.8
20260506072812 63 225 0.9 0.9 0.00 0.00 0.00 78 1010.0
20260506072310 62 228 0.0 0.0 0.00 0.00 0.00 78 1010.0
20260506071808 62 262 0.9 0.9 0.00 0.00 0.00 78 1009.9
20260506071306 63 260 0.0 0.9 0.00 0.00 0.00 79 1009.7
20260506070802 63 255 0.0 0.0 0.00 0.00 0.00 78 1009.5
20260506070259 63 225 0.0 0.0 0.00 0.00 0.00 76 1009.2
20260506062236 63 242 0.0 0.0 0.00 0.00 0.00 75 1010.0
20260506061726 63 239 0.9 0.9 0.00 0.00 0.00 76 1010.0
20260506061224 63 241 0.9 0.9 0.00 0.00 0.00 76 1009.9
20260506060723 63 228 0.0 0.0 0.00 0.00 0.00 76 1010.1
20260506060219 64 253 0.0 0.0 0.00 0.00 0.00 74 1010.2
20260506051145 65 258 0.0 0.9 0.00 0.00 0.00 72 1010.1
20260506050644 65 229 0.9 1.7 0.00 0.00 0.00 70 1009.9
20260506050140 65 248 0.9 0.9 0.00 0.00 0.00 69 1010.0
20260506045133 65 236 1.7 1.7 0.00 0.00 0.00 69 1010.1
20260506044631 65 219 1.7 1.7 0.00 0.00 0.00 68 1010.3
20260506044128 65 206 2.6 2.6 0.00 0.00 0.00 69 1010.4
20260506043625 65 242 0.9 0.9 0.00 0.00 0.00 68 1010.1
20260506043124 64 231 1.7 2.6 0.00 0.00 0.00 70 1010.5
20260506042622 64 192 0.0 0.9 0.00 0.00 0.00 72 1010.1
20260506042120 63 255 0.0 0.0 0.00 0.00 0.00 73 1010.0
20260506041618 63 234 0.9 0.9 0.00 0.00 0.00 73 1009.9
20260506041114 63 247 0.0 0.0 0.00 0.00 0.00 72 1009.9
20260506040612 63 254 0.0 0.0 0.00 0.00 0.00 73 1010.0
20260506040109 63 224 0.0 0.0 0.00 0.00 0.00 72 1009.9
20260506035606 63 243 0.0 0.0 0.00 0.00 0.00 72 1010.0
20260506035102 62 248 0.0 0.9 0.00 0.00 0.00 73 1009.8
20260506034600 61 236 0.9 0.9 0.00 0.00 0.00 75 1010.0
20260506034056 60 280 0.9 0.9 0.00 0.00 0.00 76 1010.0
20260506033554 60 254 0.0 0.9 0.00 0.00 0.00 76 1010.0
20260506033050 59 259 0.0 0.0 0.00 0.00 0.00 78 1009.8
20260506032548 59 254 0.0 0.0 0.00 0.00 0.00 79 1009.8
20260506032045 59 254 0.0 0.0 0.00 0.00 0.00 79 1009.8
20260506031542 59 254 0.0 0.0 0.00 0.00 0.00 79 1009.8
20260506031039 59 254 0.0 0.0 0.00 0.00 0.00 79 1009.8
20260506030537 59 254 0.0 0.0 0.00 0.00 0.00 79 1009.7
20260506030034 59 255 0.0 0.0 0.00 0.00 0.00 79 1009.9
20260506025531 59 254 0.0 0.0 0.00 0.00 0.00 79 1010.1
20260506025027 59 254 0.0 0.0 0.00 0.00 0.00 79 1010.0
20260506024524 59 254 0.0 0.0 0.00 0.00 0.00 79 1009.8
20260506024020 59 254 0.0 0.0 0.00 0.00 0.00 78 1010.0
20260506023517 59 254 0.0 0.0 0.00 0.00 0.00 78 1010.1
20260506023015 59 254 0.0 0.0 0.00 0.00 0.00 77 1010.0
20260506022512 59 254 0.0 0.0 0.00 0.00 0.00 77 1010.4
20260506022009 59 254 0.0 0.0 0.00 0.00 0.00 76 1010.4
20260506021507 60 254 0.0 0.0 0.00 0.00 0.00 76 1010.3
20260506021004 60 254 0.0 0.0 0.00 0.00 0.00 76 1010.2
20260506020501 60 254 0.0 0.0 0.00 0.00 0.00 75 1010.1
20260506015957 60 254 0.0 0.0 0.00 0.00 0.00 74 1010.2
20260506015455 61 254 0.0 0.0 0.00 0.00 0.00 74 1010.3
20260506014952 61 254 0.0 0.0 0.00 0.00 0.00 73 1010.2
20260506014449 61 253 0.0 0.0 0.00 0.00 0.00 73 1009.9
20260506013945 62 253 0.0 0.0 0.00 0.00 0.00 72 1010.0
20260506013444 62 253 0.0 0.0 0.00 0.00 0.00 72 1009.9
20260506012939 62 254 0.0 0.0 0.00 0.00 0.00 70 1010.0
20260506012436 63 254 0.0 0.0 0.00 0.00 0.00 69 1009.9
20260506011933 63 254 0.0 0.0 0.00 0.00 0.00 68 1009.9
20260506011431 64 253 0.0 0.0 0.00 0.00 0.00 66 1009.9
20260506010927 64 253 0.0 0.0 0.00 0.00 0.00 65 1010.0
20260506010426 64 254 0.0 0.0 0.00 0.00 0.00 65 1009.9
20260506005922 65 254 0.0 0.0 0.00 0.00 0.00 66 1009.8
20260506005420 65 238 0.0 0.0 0.00 0.00 0.00 62 1009.9
20260506004915 66 238 0.0 0.0 0.00 0.00 0.00 61 1009.6
20260506004413 66 238 0.0 0.0 0.00 0.00 0.00 59 1009.6
20260506003909 67 238 0.0 0.0 0.00 0.00 0.00 58 1009.5
20260506003405 68 238 0.0 0.0 0.00 0.00 0.00 55 1009.5
20260506002902 68 238 0.0 0.0 0.00 0.00 0.00 54 1009.4
20260506002358 69 238 0.0 0.0 0.00 0.00 0.00 52 1009.4
20260506001854 70 238 0.0 0.0 0.00 0.00 0.00 51 1009.6
20260506001351 70 219 0.0 0.9 0.00 0.00 0.00 51 1009.3
20260506000848 71 246 0.0 0.0 0.00 0.00 0.00 50 1009.6
20260506000346 71 246 0.0 0.0 0.00 0.00 0.00 50 1009.4
20260505235842 72 268 0.0 0.0 0.00 0.00 0.00 49 1009.3
20260505235340 72 225 0.0 0.0 0.00 0.00 0.00 49 1009.4
20260505234837 72 262 0.0 0.0 0.00 0.00 0.00 48 1009.4
20260505234335 73 262 0.0 0.0 0.00 0.00 0.00 48 1009.2
20260505233831 73 260 0.0 0.0 0.00 0.00 0.00 48 1009.1
20260505233329 73 220 0.0 0.9 0.00 0.00 0.00 47 1009.2
20260505232826 74 221 0.0 0.0 0.00 0.00 0.00 48 1009.3